Barnwell, SC

10:47 AM EDT on August 17, 2017 (GMT -0400)
Barnwell County

Weather History for KBNL - July, 2013

Change the Weather History Date:

Tuesday, July 23, 2013

  Actual Average (KOGB) Record (KOGB)
Temperature  
Mean Temperature 81 °F 82 °F  
Max Temperature 89 °F 93 °F 102 °F (1983)
Min Temperature 73 °F 72 °F 59 °F (2007)
Degree Days  
Heating Degree Days 0 0  
Month to date heating degree days 0  
Since 1 June heating degree days 1  
Since 1 July heating degree days 0  
Cooling Degree Days 16 17  
Month to date cooling degree days 384  
Year to date cooling degree days 1085  
Since 1 June cooling degree days 782  
Growing Degree Days 31 (Base 50)    
Moisture  
Dew Point 72 °F    
Average Humidity 78    
Maximum Humidity 100    
Minimum Humidity 55    
Precipitation  
Precipitation 0.02 in 0.16 in 2.20 in (2000)
Month to date precipitation 4.07  
Year to date precipitation 26.81  
Sea Level Pressure  
Sea Level Pressure 29.90 in    
Wind  
Wind Speed 7 mph (WSW)    
Max Wind Speed 13 mph    
Max Gust Speed 20 mph    
Visibility 10 miles    
Events Thunderstorm    
T = Trace of Precipitation, MM = Missing Value Source: NWS Daily Summary

Daily Weather History Graph

Daily Weather History Graph

Search for Another Location

Airport or City:

Trip Planner

Search our weather history database for the weather conditions in past years. The results will help you decide how hot, cold, wet, or windy it might be!

Date:

Astronomy

Jul. 23, 2013 Rise Set
Actual Time 6:32 AM EDT 8:31 PM EDT
Civil Twilight 6:04 AM EDT 8:58 PM EDT
Nautical Twilight 5:31 AM EDT 9:32 PM EDT
Astronomical Twilight 4:55 AM EDT 10:08 PM EDT
Moon 9:06 PM EDT (7/23) 7:33 AM EDT (7/23)
Length of Visible Light 14h 54m
Length of Day
13h 58m
Full, 99% of the Moon is Illuminated
Jul 23
Full
Jul 29
Last Quarter
Aug 6
New
Aug 14
First Quarter
Aug 20
Full

Hourly Weather History & Observations

Time (EDT) Temp. Heat Index Dew Point Humidity Pressure Visibility Wind Dir Wind Speed Gust Speed Precip Events Conditions
12:15 AM 77.0 °F - 73.4 °F 89% 29.95 in 10.0 mi SW 5.8 mph - N/A   Overcast
12:35 AM 77.0 °F - 73.4 °F 89% 29.95 in 10.0 mi SW 6.9 mph - N/A   Scattered Clouds
12:55 AM 75.2 °F - 73.4 °F 94% 29.94 in 10.0 mi SW 4.6 mph - N/A   Mostly Cloudy
1:15 AM 75.2 °F - 73.4 °F 94% 29.94 in 10.0 mi SW 6.9 mph - N/A   Scattered Clouds
1:35 AM 75.2 °F - 73.4 °F 94% 29.94 in 10.0 mi SW 5.8 mph - N/A   Mostly Cloudy
1:55 AM 75.2 °F - 73.4 °F 94% 29.93 in 10.0 mi SW 6.9 mph - N/A   Overcast
2:15 AM 75.2 °F - 73.4 °F 94% 29.93 in 10.0 mi WSW 10.4 mph - N/A   Overcast
2:35 AM 75.2 °F - 73.4 °F 94% 29.93 in 10.0 mi WSW 9.2 mph - N/A   Overcast
2:55 AM 75.2 °F - 71.6 °F 89% 29.92 in 10.0 mi WSW 8.1 mph - N/A   Mostly Cloudy
3:15 AM 75.2 °F - 71.6 °F 89% 29.92 in 10.0 mi WSW 6.9 mph - N/A   Scattered Clouds
3:35 AM 75.2 °F - 71.6 °F 89% 29.92 in 10.0 mi WSW 6.9 mph - N/A   Overcast
3:55 AM 75.2 °F - 71.6 °F 89% 29.91 in 10.0 mi WSW 6.9 mph - N/A   Overcast
4:15 AM 75.2 °F - 71.6 °F 89% 29.91 in 10.0 mi WSW 6.9 mph - N/A   Overcast
4:35 AM 73.4 °F - 71.6 °F 94% 29.92 in 10.0 mi WSW 6.9 mph - N/A   Overcast
4:55 AM 75.2 °F - 71.6 °F 89% 29.92 in 10.0 mi WSW 6.9 mph - N/A   Overcast
5:15 AM 75.2 °F - 71.6 °F 89% 29.93 in 10.0 mi WSW 8.1 mph - N/A   Overcast
5:35 AM 75.2 °F - 71.6 °F 89% 29.93 in 10.0 mi WSW 8.1 mph - N/A   Overcast
5:55 AM 75.2 °F - 71.6 °F 89% 29.93 in 10.0 mi WSW 6.9 mph - N/A   Overcast
6:15 AM 75.2 °F - 71.6 °F 89% 29.93 in 10.0 mi WSW 6.9 mph - N/A   Scattered Clouds
6:35 AM 73.4 °F - 71.6 °F 94% 29.93 in 10.0 mi WSW 5.8 mph - N/A   Scattered Clouds
6:55 AM 75.2 °F - 71.6 °F 89% 29.94 in 10.0 mi West 6.9 mph - N/A   Mostly Cloudy
7:15 AM 75.2 °F - 71.6 °F 89% 29.94 in 10.0 mi West 8.1 mph - N/A   Mostly Cloudy
7:35 AM 75.2 °F - 71.6 °F 89% 29.93 in 10.0 mi WSW 8.1 mph - N/A   Mostly Cloudy
7:55 AM 75.2 °F - 71.6 °F 89% 29.93 in 10.0 mi West 5.8 mph - N/A   Scattered Clouds
8:15 AM 75.2 °F - 71.6 °F 89% 29.94 in 10.0 mi West 8.1 mph - N/A   Mostly Cloudy
8:35 AM 75.2 °F - 71.6 °F 89% 29.93 in 10.0 mi WSW 8.1 mph - N/A   Overcast
8:55 AM 75.2 °F - 71.6 °F 89% 29.93 in 10.0 mi WSW 6.9 mph - N/A   Overcast
9:15 AM 77.0 °F - 71.6 °F 83% 29.93 in 10.0 mi West 8.1 mph - N/A   Overcast
9:35 AM 78.8 °F - 71.6 °F 78% 29.93 in 10.0 mi West 10.4 mph - N/A   Overcast
9:55 AM 78.8 °F - 71.6 °F 78% 29.93 in 10.0 mi West 8.1 mph - N/A   Mostly Cloudy
10:15 AM 80.6 °F 84.6 °F 71.6 °F 74% 29.93 in 10.0 mi West 10.4 mph - N/A   Mostly Cloudy
10:35 AM 80.6 °F 84.6 °F 71.6 °F 74% 29.94 in 10.0 mi West 9.2 mph - N/A   Mostly Cloudy
10:55 AM 82.4 °F 87.2 °F 71.6 °F 70% 29.94 in 10.0 mi West 11.5 mph 17.3 mph N/A   Mostly Cloudy
11:15 AM 82.4 °F 87.2 °F 71.6 °F 70% 29.93 in 10.0 mi WSW 12.7 mph 17.3 mph N/A   Scattered Clouds
11:35 AM 82.4 °F 87.2 °F 71.6 °F 70% 29.94 in 10.0 mi West 12.7 mph 17.3 mph N/A   Mostly Cloudy
11:55 AM 84.2 °F 89.6 °F 71.6 °F 66% 29.93 in 10.0 mi WSW 12.7 mph 19.6 mph N/A   Scattered Clouds
12:15 PM 84.2 °F 89.6 °F 71.6 °F 66% 29.93 in 10.0 mi West 10.4 mph 16.1 mph N/A   Partly Cloudy
12:35 PM 86.0 °F 91.8 °F 71.6 °F 62% 29.92 in 10.0 mi WSW 10.4 mph 18.4 mph N/A   Partly Cloudy
12:55 PM 87.8 °F 93.8 °F 71.6 °F 58% 29.92 in 10.0 mi West 9.2 mph - N/A   Partly Cloudy
1:15 PM 87.8 °F 93.8 °F 71.6 °F 58% 29.91 in 10.0 mi West 10.4 mph 17.3 mph N/A   Scattered Clouds
1:35 PM 87.8 °F 93.8 °F 71.6 °F 58% 29.91 in 10.0 mi WSW 11.5 mph 19.6 mph N/A   Scattered Clouds
1:55 PM 87.8 °F 93.8 °F 71.6 °F 58% 29.90 in 10.0 mi WSW 12.7 mph 19.6 mph N/A   Scattered Clouds
2:15 PM 89.6 °F 96.2 °F 71.6 °F 55% 29.90 in 10.0 mi West 9.2 mph - N/A   Mostly Cloudy
2:35 PM 89.6 °F 96.2 °F 71.6 °F 55% 29.89 in 10.0 mi WSW 11.5 mph 19.6 mph N/A   Mostly Cloudy
2:55 PM 89.6 °F 96.2 °F 71.6 °F 55% 29.88 in 10.0 mi WSW 10.4 mph - N/A   Partly Cloudy
3:15 PM 89.6 °F 96.2 °F 71.6 °F 55% 29.87 in 10.0 mi West 11.5 mph 18.4 mph N/A   Partly Cloudy
3:35 PM 89.6 °F 96.2 °F 71.6 °F 55% 29.86 in 10.0 mi West 9.2 mph - N/A   Scattered Clouds
3:55 PM 89.6 °F 96.2 °F 71.6 °F 55% 29.86 in 10.0 mi WSW 11.5 mph - N/A   Scattered Clouds
4:15 PM 89.6 °F 96.2 °F 71.6 °F 55% 29.85 in 10.0 mi West 10.4 mph - N/A   Scattered Clouds
4:35 PM 89.6 °F 96.2 °F 71.6 °F 55% 29.84 in 10.0 mi West 9.2 mph - N/A   Partly Cloudy
4:55 PM 89.6 °F 96.2 °F 71.6 °F 55% 29.83 in 10.0 mi WSW 8.1 mph - N/A   Clear
5:15 PM 89.6 °F 96.2 °F 71.6 °F 55% 29.83 in 10.0 mi West 8.1 mph - N/A   Partly Cloudy
5:35 PM 89.6 °F 96.2 °F 71.6 °F 55% 29.83 in 10.0 mi West 9.2 mph - N/A   Partly Cloudy
5:55 PM 89.6 °F 96.2 °F 71.6 °F 55% 29.83 in 10.0 mi WSW 9.2 mph - N/A   Clear
6:15 PM 89.6 °F 96.2 °F 71.6 °F 55% 29.82 in 10.0 mi WSW 6.9 mph - N/A   Partly Cloudy
6:35 PM 89.6 °F 98.2 °F 73.4 °F 59% 29.82 in 10.0 mi WSW 6.9 mph - N/A   Clear
6:55 PM 87.8 °F 95.6 °F 73.4 °F 62% 29.83 in 10.0 mi SW 5.8 mph - N/A   Mostly Cloudy
7:15 PM 86.0 °F 93.4 °F 73.4 °F 66% 29.83 in 10.0 mi SSW 6.9 mph - N/A   Mostly Cloudy
7:35 PM 84.2 °F 92.3 °F 75.2 °F 74% 29.83 in 10.0 mi Calm Calm - N/A Thunderstorm Thunderstorm
7:55 PM 78.8 °F - 73.4 °F 83% 29.84 in 10.0 mi NE 9.2 mph - N/A Thunderstorm Thunderstorm
8:15 PM 77.0 °F - 73.4 °F 89% 29.85 in 8.0 mi Calm Calm - 0.02 in Thunderstorm Thunderstorm
8:35 PM 77.0 °F - 75.2 °F 94% 29.86 in 9.0 mi Calm Calm - 0.02 in Thunderstorm Thunderstorm
8:55 PM 77.0 °F - 75.2 °F 94% 29.86 in 8.0 mi Calm Calm - 0.02 in   Mostly Cloudy
9:15 PM 77.0 °F - 75.2 °F 94% 29.86 in 8.0 mi Calm Calm - N/A   Clear
9:35 PM 77.0 °F - 75.2 °F 94% 29.87 in 10.0 mi Calm Calm - N/A   Clear
9:55 PM 75.2 °F - 75.2 °F 100% 29.87 in 7.0 mi Calm Calm - N/A   Clear
10:15 PM 77.0 °F - 75.2 °F 94% 29.87 in 7.0 mi Calm Calm - N/A   Clear
10:35 PM 77.0 °F - 75.2 °F 94% 29.87 in 9.0 mi Calm Calm - N/A   Clear
10:55 PM 75.2 °F - 75.2 °F 100% 29.86 in 5.0 mi Calm Calm - N/A   Clear
11:15 PM 77.0 °F - 75.2 °F 94% 29.86 in 8.0 mi Calm Calm - N/A   Clear
11:35 PM 77.0 °F - 73.4 °F 89% 29.86 in 9.0 mi Calm Calm - N/A   Clear
11:55 PM 78.8 °F - 73.4 °F 83% 29.86 in 10.0 mi SW 5.8 mph - N/A   Clear